Home > Weather > Tarlac City > Past weeks

Flag for Philippines Past Weather in Tarlac City, Philippines — Yesterday and Last 2 Weeks

Now
77 °F

More clouds than sun.


Feels Like: 78 °F
Forecast: 79 / 94 °F
Wind: 3 mph from North

Location: Clarkfield Pampanga International Airport

Current Time: May 26, 2016 at 6:57:04 AM

Latest Report: May 26, 2016 at 6:00 AM


Visibility: 4 mi

Pressure: 29.86 "Hg

Humidity: 94%

Dew Point: 75 °F

Location of Tarlac CityLocation

Past Weather in Tarlac City — Graph

°F

Tarlac City Temperature Yesterday

Maximum temperature yesterday: 91 °F (at 12:00 PM)
Minimum temperature yesterday: 79 °F (at 4:00 AM)
Average temperature yesterday: 83 °F

High & Low Weather Summary for the Past Weeks

 TemperatureHumidityPressure
High95 °F (May 11, 2:00 PM)100% (May 17, 4:00 AM)29.95 "Hg (May 17, 4:00 AM)
Low75 °F (May 19, 1:00 AM)53% (May 11, 2:00 PM)29.74 "Hg (May 11, 2:00 PM)
Average84 °F79%29.84 "Hg
* Reported May 11 5:00 AM — May 26 5:00 AM, Tarlac City, Weather by CustomWeather, © 2016

Note: Actual official high and low records may vary slightly from our data, if they occured in-between our weather recording intervals... More about our weather records

Advertising

Tarlac City Weather History for the Previous 24 Hours

Scroll right to see more
 ConditionsComfort  
Time TempWeatherWind HumidityBarometerVisibility
5:00 AM
Thu, May 26
77 °FSprinkles. Mostly cloudy.2 mph94%29.86 "Hg5 mi
4:00 AM77 °FOvercast.3 mph94%29.86 "Hg6 mi
3:00 AM77 °FOvercast.2 mph94%29.86 "Hg6 mi
2:00 AM77 °FMostly cloudy.3 mph94%29.86 "Hg5 mi
1:00 AM77 °FLight rain. Mostly cloudy.3 mph94%29.89 "Hg5 mi
12:00 AM79 °FLight rain. Mostly cloudy.6 mph94%29.95 "Hg5 mi
11:00 PM
Wed, May 25
79 °FLight rain. Mostly cloudy.6 mph94%29.95 "Hg5 mi
10:00 PM79 °FLight rain. Mostly cloudy.1 mph94%29.92 "Hg5 mi
9:00 PM81 °FSprinkles. Mostly cloudy.7 mph94%29.92 "Hg5 mi
8:00 PM81 °FThundershowers. Partly cloudy.2 mph94%29.86 "HgN/A
7:00 PM81 °FThunderstorms. Partly cloudy.2 mph94%29.83 "HgN/A
6:00 PM84 °FSprinkles. More clouds than sun.6 mph89%29.80 "Hg5 mi
5:00 PM86 °FThundershowers. More clouds than sun.12 mph70%29.80 "HgN/A
4:00 PM88 °FBroken clouds.14 mph66%29.80 "HgN/A
3:00 PM88 °FBroken clouds.12 mph70%29.77 "HgN/A
2:00 PM90 °FBroken clouds.9 mph59%29.80 "HgN/A
1:00 PM91 °FBroken clouds.14 mph63%29.83 "HgN/A
12:00 PM91 °FBroken clouds.13 mph67%29.86 "HgN/A
11:00 AM90 °FBroken clouds.2 mph71%29.89 "HgN/A
10:00 AM86 °FPartly sunny.2 mph79%29.89 "HgN/A
9:00 AM86 °FMore clouds than sun.7 mph79%29.89 "HgN/A
8:00 AM82 °FCloudy.1 mph84%29.89 "HgN/A
7:00 AM79 °FOvercast.3 mph94%29.86 "HgN/A
6:00 AM79 °FPartly sunny.3 mph94%29.83 "HgN/A
Weather by CustomWeather, © 2016

See weather overviewHow to use our weather pages